Location: Newark
(26.2500°N, 17.3000°E)
Time: 00:45:14
(UTC+00:00)

Hubble Space Telescope - Visible Passes

Search period start: 19 September 2019 00:00
Search period end: 29 September 2019 00:00
Orbit: 536 x 540 km, 28.5° (Epoch: 18 September)

Date Brightness Start Highest point End Pass type
(mag) Time Alt. Az. Time Alt. Az. Time Alt. Az.
19 Sep 0.9 03:10:09 51° NW 03:10:59 68° N 03:15:06 10° E visible
20 Sep 0.7 03:00:20 73° NNW 03:00:29 74° N 03:04:36 10° E visible
21 Sep 1.1 02:50:35 63° E 02:50:35 63° E 02:54:05 10° E visible
22 Sep 2.0 02:40:53 39° ESE 02:40:53 39° ESE 02:43:33 10° ESE visible
22 Sep 1.9 04:16:52 10° W 04:20:26 29° SSW 04:24:01 10° SE visible
23 Sep 2.8 02:31:15 24° ESE 02:31:15 24° ESE 02:32:59 10° ESE visible
23 Sep 2.2 04:06:37 10° WSW 04:09:49 22° SSW 04:13:04 10° SSE visible
24 Sep 3.5 02:21:41 14° ESE 02:21:41 14° ESE 02:22:22 10° ESE visible
24 Sep 2.5 03:57:04 12° WSW 03:59:12 17° SSW 04:01:58 10° SSE visible
25 Sep 2.8 03:47:34 12° SW 03:48:34 13° SSW 03:50:35 10° S visible
27 Sep 3.3 18:47:27 10° SW 18:48:14 15° SW 18:48:14 15° SW visible
28 Sep 2.9 16:57:58 10° S 16:59:53 13° SSE 17:01:47 10° ESE visible
28 Sep 2.6 18:36:44 10° SW 18:38:37 25° SW 18:38:37 25° SW visible
